Theta_e
309 310 312 313 314 315 316 318 317 315 316 315 314 312 312 313 314 315 320 321 321 323 328 333 340 339 337 337 346 347 353 352 351 353 352 348 347 346 344 343 345 343 342 341 340
309 310 311 313 313 315 316 317 318 312 312 314 313 312 312 313 314 321 321 318 321 322 326 334 337 335 333 339 344 348 354 351 348 346 350 345 344 346 344 344 344 343 341 340 340
309 310 311 312 313 315 316 318 318 311 312 312 312 311 311 313 325 323 320 317 322 322 324 330 330 332 334 340 346 347 353 350 345 345 347 345 346 347 344 344 344 343 340 341 341
310 310 311 312 314 315 317 318 319 318 316 318 320 318 313 314 331 328 319 318 322 322 323 326 329 331 337 344 345 351 349 348 345 346 346 345 343 347 346 345 341 342 340 341 341
312 311 311 312 314 316 318 320 320 320 322 322 323 325 322 329 331 324 315 320 322 322 325 327 330 332 343 345 344 348 348 347 345 346 346 347 348 346 347 345 340 341 342 341 341
315 313 312 312 314 316 319 321 322 320 320 321 323 325 327 333 329 328 321 318 324 324 326 326 329 340 344 343 347 347 347 346 344 343 344 345 345 347 346 346 342 341 342 341 341
317 316 314 313 315 317 320 322 325 320 320 322 323 323 331 331 328 326 324 325 324 324 326 326 326 334 343 346 345 346 348 347 346 344 345 343 345 348 347 346 343 342 342 341 342
317 317 315 314 315 318 322 324 324 325 322 323 324 324 332 326 328 323 323 323 324 324 324 324 325 333 344 343 346 346 347 351 348 348 345 343 348 341 344 347 344 342 342 342 342
318 317 317 315 314 318 322 324 324 325 325 325 326 328 332 325 325 324 321 322 322 324 323 322 326 339 341 345 345 348 345 348 351 347 348 348 347 341 342 347 345 343 341 341 343
321 319 317 316 314 317 322 324 324 325 325 324 326 331 328 328 325 325 324 321 322 323 324 324 329 338 341 342 348 344 341 342 351 349 349 349 349 348 344 345 346 345 342 343 344
320 321 319 317 315 316 322 326 331 330 331 331 330 328 326 323 322 324 324 322 322 325 328 328 331 336 338 339 339 337 337 343 345 345 348 350 349 349 347 346 344 346 346 344 344
321 320 321 319 316 313 321 327 325 323 326 327 326 325 325 323 324 325 324 324 324 326 327 328 328 333 335 334 334 335 336 344 345 345 348 347 347 348 349 346 346 346 346 345 345
322 321 320 320 315 312 323 325 323 323 327 328 327 326 325 324 324 325 324 323 324 325 327 327 329 329 330 330 332 334 337 341 349 345 344 343 349 349 348 348 347 346 347 347 345
320 322 321 320 321 321 321 324 322 324 330 331 328 327 326 325 325 324 323 324 324 325 326 326 328 327 326 330 333 334 335 336 340 344 345 340 350 347 350 350 348 347 346 346 345
316 319 322 321 320 321 322 321 321 325 335 330 328 327 326 327 325 324 323 324 324 324 325 325 325 325 326 328 331 333 334 337 340 340 343 345 340 346 346 351 350 347 347 345 344
315 316 322 323 323 321 320 320 323 330 332 330 329 328 328 327 324 323 324 323 326 326 324 328 326 325 327 329 328 331 333 337 337 337 338 340 335 345 348 345 347 346 346 346 344
317 318 322 322 325 322 319 321 328 330 332 331 330 329 328 327 326 325 325 325 327 327 327 328 327 328 328 331 330 333 336 341 344 345 342 339 332 342 338 340 345 345 344 346 345
320 320 323 321 321 321 319 325 328 328 329 331 330 329 328 328 327 326 325 326 327 328 330 329 329 329 330 333 334 334 334 336 341 343 338 336 334 341 337 339 343 345 346 344 344
320 324 325 323 320 320 321 323 327 328 328 331 330 329 329 329 329 328 327 326 327 328 330 329 332 329 331 331 330 333 332 332 334 333 332 334 335 335 335 339 341 345 346 346 344
319 324 325 321 319 321 323 321 324 326 326 329 331 329 330 330 329 329 328 327 327 328 328 331 332 330 329 329 329 330 332 333 330 336 339 337 334 342 339 339 339 340 343 347 347
321 326 321 319 320 322 324 323 323 324 324 327 330 330 330 331 330 330 329 328 327 327 327 329 331 332 330 329 330 330 330 330 331 335 335 337 337 334 338 337 339 340 342 344 345
323 329 320 318 321 324 325 324 321 323 323 324 328 330 330 330 331 330 330 330 328 329 327 328 331 335 332 331 331 331 332 333 332 334 335 334 337 335 337 337 339 341 344 346 346
326 327 324 319 325 326 326 325 323 323 323 324 325 328 328 329 330 330 330 330 329 329 329 329 331 335 334 332 331 331 331 331 332 333 337 339 340 337 336 337 338 340 343 345 346
325 331 326 323 322 325 326 325 323 322 322 322 324 325 327 327 329 330 330 330 329 329 328 330 331 332 335 336 333 332 331 331 332 333 334 334 338 338 338 338 338 339 342 342 344
325 328 326 331 329 327 325 327 327 324 322 321 323 323 325 328 329 329 330 330 329 327 330 330 332 333 334 334 331 330 330 329 330 332 334 335 336 336 338 338 339 339 341 341 342
324 326 326 327 326 328 326 327 327 327 325 325 324 325 324 326 327 329 329 330 332 331 331 331 333 333 334 332 330 329 328 328 328 330 332 332 333 335 339 337 338 340 341 341 342
323 322 323 325 327 328 328 328 328 326 327 327 328 328 328 326 327 328 328 329 330 332 332 332 332 333 335 332 331 330 330 329 329 329 330 331 333 340 341 338 339 341 341 341 342
Wind_Speed
8 7 7 7 8 8 9 10 10 9 7 5 5 6 7 7 7 7 6 8 10 8 6 5 7 7 7 7 3 6 1 4 7 14 4 4 9 3 3 10 7 1 16 22 20
8 7 7 8 8 9 9 10 11 9 5 4 4 4 6 7 7 10 12 13 9 8 5 8 9 5 8 6 6 6 5 3 11 8 12 7 8 8 11 11 10 12 19 22 20
9 8 8 8 9 9 10 10 10 8 3 1 2 3 5 7 5 7 13 10 9 9 4 8 8 8 10 8 6 4 3 8 6 7 11 12 3 1 9 7 13 17 21 20 18
10 9 8 8 8 9 9 9 8 8 7 7 5 3 6 12 5 2 10 11 11 7 6 7 8 14 5 4 5 4 8 15 6 8 12 9 8 8 15 7 13 17 19 19 17
11 10 9 8 9 8 8 8 7 6 5 6 6 5 8 7 3 2 8 11 9 5 6 7 11 6 6 3 6 13 9 14 10 12 13 7 1 2 16 7 14 15 16 16 16
12 11 10 9 9 8 8 8 5 3 2 4 5 2 4 14 3 3 7 10 9 8 7 7 6 8 6 7 14 11 9 13 15 11 6 6 7 7 9 6 15 13 15 15 14
14 12 11 10 8 8 9 10 4 1 0 1 3 0 7 2 3 5 9 10 10 9 8 6 6 9 7 12 10 13 14 10 14 10 5 11 5 5 6 7 15 12 13 15 14
15 13 12 11 9 8 8 9 6 2 3 2 2 4 2 2 5 5 8 11 12 9 6 6 6 11 12 7 7 7 12 6 8 12 5 4 2 14 13 7 13 14 15 15 14
16 15 14 12 9 8 7 10 7 3 4 3 1 5 5 3 8 8 8 11 12 11 9 7 7 18 5 17 4 12 5 12 10 11 12 10 8 24 19 11 15 14 17 17 15
17 16 15 14 10 7 7 11 5 3 4 5 7 8 7 10 10 9 9 10 14 13 10 11 11 12 14 8 4 17 5 7 9 11 10 7 5 14 18 14 11 16 15 18 18
18 16 15 14 11 7 5 9 4 4 10 13 5 8 4 7 10 10 10 12 14 14 15 16 12 15 15 17 22 9 5 8 8 8 8 14 14 12 20 15 15 16 19 17 20
19 17 15 14 11 6 2 6 4 7 11 12 9 7 3 9 12 11 13 14 14 15 18 11 13 17 2 6 6 8 1 4 6 7 9 8 8 14 18 20 14 16 15 19 18
18 18 16 12 8 3 6 5 3 9 8 12 10 13 11 10 13 15 17 16 13 16 15 14 14 9 4 9 10 12 3 5 13 9 8 5 9 12 13 20 20 18 17 13 19
18 18 17 9 3 5 7 7 6 8 7 16 13 8 14 12 8 16 17 11 12 13 12 12 15 6 11 12 13 1 7 4 7 8 2 24 3 19 16 13 15 22 19 17 16
19 18 15 12 9 4 2 5 7 6 6 15 15 14 15 15 16 14 16 10 12 13 11 15 12 11 12 14 15 4 4 6 6 12 13 16 8 7 15 17 17 17 24 25 21
19 17 15 11 9 8 8 6 5 8 9 11 11 13 15 16 11 14 16 14 9 10 13 10 2 10 14 3 3 4 6 7 10 11 9 0 8 9 3 8 11 22 20 21 26
17 16 15 11 3 6 5 7 8 11 6 11 16 17 17 11 12 16 16 16 12 12 12 13 12 11 6 12 8 11 16 5 6 5 8 12 7 9 3 9 6 3 18 22 24
18 17 15 11 10 10 6 10 13 10 18 4 15 17 16 15 13 17 17 16 18 20 9 12 13 14 12 15 7 14 17 10 7 8 6 6 0 6 6 9 10 3 2 19 21
20 11 11 8 8 9 14 13 14 16 7 7 11 14 18 14 9 15 18 17 18 14 16 8 8 17 15 10 10 6 8 14 9 7 5 5 5 10 5 7 7 8 9 8 13
19 11 10 9 8 9 11 19 18 17 9 11 18 14 16 17 14 13 16 17 16 17 18 3 9 13 12 9 11 14 13 6 6 2 10 2 4 10 9 6 5 5 12 7 8
11 8 5 5 8 14 12 19 20 19 8 13 17 17 18 15 18 14 12 11 18 15 14 16 10 9 9 12 15 8 10 8 12 7 3 3 7 10 12 6 4 8 5 9 8
7 5 4 2 10 15 14 21 10 16 15 16 9 17 13 18 14 18 15 14 17 15 15 18 8 12 16 14 7 11 9 8 6 8 6 8 7 11 12 11 5 9 9 9 5
7 14 7 8 7 12 14 16 16 13 18 17 16 14 12 15 13 15 16 7 12 13 11 15 11 10 13 14 12 10 14 13 14 13 9 10 8 7 10 13 8 9 10 7 5
7 4 10 13 17 13 15 15 16 18 21 19 16 18 12 13 15 14 15 11 11 15 2 12 15 14 2 13 3 13 9 5 13 10 8 9 16 14 12 9 9 6 8 7 6
6 4 6 4 6 10 14 10 13 17 13 18 15 15 14 15 16 16 15 11 10 10 9 13 18 10 11 15 4 8 8 8 11 15 16 6 7 6 10 7 13 8 8 8 7
8 6 8 16 14 10 9 13 17 13 13 15 13 15 18 17 17 14 15 20 15 13 15 17 17 13 13 6 6 10 10 12 11 12 13 9 10 8 10 5 6 9 9 9 8
6 9 8 11 11 10 11 12 14 13 9 12 10 10 6 7 13 17 20 22 15 18 17 18 15 13 14 13 9 10 14 13 10 10 10 11 4 9 2 5 9 9 9 9 7
Wind_Direction
16 10 8 5 5 3 358 351 340 324 300 280 243 224 221 223 217 213 218 228 220 206 203 212 232 256 271 246 220 242 33 236 153 177 127 144 122 87 117 120 54 64 143 143 146
17 9 1 358 354 355 356 356 351 339 309 273 239 213 205 211 219 232 232 231 213 199 204 217 232 255 263 242 220 218 32 304 39 55 145 147 120 163 160 124 109 106 117 139 146
15 7 360 353 349 350 356 2 6 8 30 103 163 183 181 180 232 187 222 211 186 186 242 245 270 273 264 273 359 42 47 106 42 107 148 146 156 53 183 113 135 133 137 145 150
15 7 359 350 347 350 355 3 18 36 65 82 88 130 169 174 220 156 206 191 179 192 252 254 257 263 269 65 24 101 43 94 73 98 136 147 187 227 75 100 114 138 144 147 154
13 5 356 348 346 352 354 2 8 25 56 66 73 124 154 208 85 243 186 182 179 207 238 254 267 306 307 75 62 86 96 113 110 97 108 150 166 139 134 150 123 139 149 152 154
9 2 353 345 343 346 347 348 340 335 43 50 49 133 207 241 142 208 169 191 193 220 237 244 316 304 307 26 90 95 109 113 118 102 100 71 11 356 119 130 134 150 154 157 151
5 358 349 340 339 341 345 354 22 228 234 36 19 33 241 37 168 206 197 203 209 215 239 240 289 277 287 115 126 137 134 133 115 121 111 107 344 333 322 162 154 163 163 151 152
0 354 347 336 333 336 343 352 327 266 224 268 311 226 297 177 207 204 196 206 213 213 223 250 269 276 286 88 193 155 148 139 137 147 139 149 215 288 288 247 173 167 154 160 153
356 351 344 333 324 325 332 338 328 246 219 260 230 235 186 238 201 198 189 201 198 201 224 253 255 254 176 224 138 134 204 133 155 171 154 165 170 213 234 263 180 180 161 172 165
352 348 342 333 319 312 322 327 319 188 206 245 229 245 200 224 172 179 189 189 185 189 213 231 231 227 226 91 91 260 87 95 145 170 179 204 195 161 195 210 229 197 187 179 174
346 344 339 332 318 293 312 318 276 212 229 255 162 271 157 143 161 181 173 175 187 194 214 206 226 232 233 130 204 297 49 99 93 129 211 186 156 162 175 191 205 229 175 204 188
341 339 337 330 319 269 259 279 15 346 295 223 234 238 197 172 183 171 177 191 197 204 221 186 236 252 99 331 314 292 49 85 128 161 233 146 176 160 173 194 200 216 226 200 190
334 337 334 333 326 254 258 286 294 328 258 182 203 209 192 200 204 174 191 213 199 216 206 243 218 246 254 223 229 237 241 142 157 189 250 227 5 161 179 180 198 207 234 230 186
327 332 336 333 3 288 256 233 302 311 271 161 182 192 179 205 200 183 199 199 201 223 220 236 264 209 237 236 248 149 353 206 235 115 76 282 199 315 162 190 193 199 212 230 218
323 323 333 322 290 271 255 271 289 287 274 147 157 146 175 208 125 192 195 210 233 219 214 214 220 222 233 223 222 66 147 264 258 268 171 241 258 185 165 180 191 214 199 202 219
319 317 320 330 286 257 283 269 282 231 246 159 148 188 180 219 205 153 187 225 282 206 224 288 222 213 213 198 225 345 210 226 243 250 261 35 284 107 259 107 176 181 204 197 212
318 313 306 292 225 269 259 228 226 244 106 167 175 181 198 184 169 172 189 198 201 207 201 210 185 196 241 199 188 226 222 130 300 357 320 213 282 70 182 107 71 133 177 186 199
317 315 298 278 242 236 224 224 244 249 225 130 187 187 205 177 191 189 190 205 232 232 207 199 172 186 204 228 196 209 263 277 285 182 186 113 327 88 59 97 110 154 265 182 188
320 322 287 281 234 209 217 223 223 252 279 171 207 196 204 207 219 189 214 215 205 231 257 196 198 167 185 230 262 150 255 277 298 198 266 140 169 136 108 128 130 125 157 185 201
326 311 259 235 237 202 227 236 239 261 329 271 219 220 220 203 197 203 194 221 222 201 256 305 152 175 178 241 244 282 331 213 216 185 261 138 221 128 187 96 133 190 125 126 163
334 284 176 285 179 210 226 232 238 255 250 268 252 240 228 216 197 210 195 204 221 191 228 256 251 160 157 208 219 189 238 237 286 336 298 103 10 93 120 110 86 105 113 116 129
293 258 182 181 222 222 230 237 261 257 242 247 280 284 248 247 231 220 214 202 190 219 200 229 234 178 203 210 266 304 282 242 224 191 291 326 129 100 120 128 118 107 103 104 97
280 283 243 203 246 235 226 251 247 234 241 227 238 249 259 263 243 248 240 233 160 223 202 215 242 189 200 184 206 241 248 267 276 282 173 269 120 134 140 137 151 132 132 132 120
287 273 198 219 249 285 283 224 238 228 259 255 238 237 245 253 245 242 238 169 193 221 80 264 235 251 150 319 169 199 222 254 277 276 258 243 140 162 161 154 149 156 147 143 137
245 272 354 275 241 236 260 279 268 240 214 246 250 246 239 244 238 228 257 200 203 187 224 232 242 234 182 236 275 301 290 276 257 270 283 74 258 59 104 139 158 178 168 160 155
293 318 339 285 285 268 254 254 259 257 246 225 230 238 230 245 254 258 224 248 198 189 222 219 246 269 294 228 260 271 265 264 253 255 256 287 285 80 108 107 149 174 182 183 167
296 279 262 280 275 268 256 276 249 257 289 272 320 272 235 268 283 308 313 305 231 202 212 225 237 237 241 254 205 253 251 252 246 253 253 250 269 94 132 155 163 178 192 186 174